Find Starlink 11714

NORAD ID: 64134 Int'l Des: 2025-111 Owner: SPXS Country: US Constellation: starlink operational
又名: STARLINK-11714 [DTC] celestrak
LEOCIRCULAR

当前视图

正在加载3D地球...

About Starlink 11714

Starlink 11714 (NORAD 64134) is a starlink constellation satellite (v2 mini d2c) launched May 24, 2025 by SPXS of US. It operates in LEO, CIRCULAR orbit with a mass of 960.00 kg.

即将过境

Passes for default location (London). Set your location on the main map for personalized predictions.

高度历史

Loading altitude history...

两行轨道根数

1 64134U 25111M 26237.50155580 .00239126 00000-0 18148-2 0 9994
2 64134 43.0005 35.8768 0005279 297.3507 62.6823 15.70818666 73190
Epoch: Aug 25, 2026 • Age: 26 hours

当前状态

高度 360.1 km
远地点 / 近地点 N/A
速度 7.70 km/s
星下点 41.48°N, 89.49°W
发射日期 May 24, 2025
运行时间 1.2 years
类型 internet

技术详情

分类 Payload
质量 960.00 kg
干质量 910.00 kg
总质量 960.00 kg
长度 0.30 m
直径 4.10 m
跨度 29.00 m
形状 Box + pan
制造商 SPXS
平台类型 Starlink V2MD
阶段状态 In Orbit
所有者/国家 SPXS/US

Most Searched